• In Netherlands
  • List of Countries
  • For 7 days
  • Water Temperature
  • Satellite Maps
  • Weather Map
  • Weather Widgets
  • user-avatar
    Login

    Hourly Weather Malanville

    Today, 24 September, Sunday

    Time Temperature Precipitation Wind Pressure Humidity
    00:00 +29°C° 0 mm 2 mps 745 mmHg 60%
    01:00 +29°C° 0 mm 2 mps 745 mmHg 62%
    02:00 +28°C° 0 mm 2 mps 744 mmHg 65%
    03:00 +28°C° 0 mm 2 mps 744 mmHg 68%
    04:00 +28°C° 0 mm 2 mps 744 mmHg 69%
    05:00 +28°C° 0 mm 3 mps 745 mmHg 71%
    06:00 +27°C° 0 mm 2 mps 745 mmHg 75%
    07:00 +29°C° 0 mm 3 mps 745 mmHg 68%
    08:00 +31°C° 0 mm 3 mps 746 mmHg 61%
    09:00 +34°C° 0 mm 3 mps 746 mmHg 54%
    10:00 +36°C° 0 mm 3 mps 745 mmHg 48%
    11:00 +37°C° 0 mm 2 mps 745 mmHg 42%
    12:00 +39°C° 0 mm 2 mps 744 mmHg 36%
    13:00 +40°C° 0 mm 2 mps 743 mmHg 34%
    14:00 +40°C° 0 mm 1 mps 743 mmHg 31%
    15:00 +41°C° 0 mm 1 mps 742 mmHg 28%
    16:00 +39°C° 0 mm 1 mps 742 mmHg 31%
    17:00 +36°C° 0 mm 1 mps 742 mmHg 33%
    18:00 +34°C° 0 mm 1 mps 741 mmHg 36%
    19:00 +35°C° 0 mm 2 mps 742 mmHg 39%
    20:00 +34°C° 0 mm 2 mps 742 mmHg 41%
    21:00 +32°C° 0 mm 2 mps 743 mmHg 44%
    22:00 +33°C° 0 mm 3 mps 743 mmHg 49%
    23:00 +31°C° 0 mm 3 mps 743 mmHg 55%

    Tomorrow, 25 September, Monday

    Time Temperature Precipitation Wind Pressure Humidity
    00:00 +30°C° 0 mm 3 mps 742 mmHg 60%
    01:00 +29°C° 0 mm 3 mps 742 mmHg 64%
    02:00 +29°C° 0 mm 3 mps 742 mmHg 69%
    03:00 +28°C° 0 mm 3 mps 741 mmHg 73%
    04:00 +28°C° 0 mm 3 mps 742 mmHg 74%
    05:00 +28°C° 0 mm 3 mps 742 mmHg 76%
    06:00 +27°C° 0 mm 3 mps 743 mmHg 78%
    07:00 +29°C° 0 mm 3 mps 743 mmHg 71%
    08:00 +31°C° 0 mm 3 mps 744 mmHg 64%
    09:00 +34°C° 0 mm 4 mps 744 mmHg 57%
    10:00 +36°C° 0 mm 3 mps 744 mmHg 51%
    11:00 +38°C° 0 mm 3 mps 743 mmHg 45%
    12:00 +39°C° 0 mm 3 mps 743 mmHg 39%
    13:00 +40°C° 0 mm 2 mps 742 mmHg 35%
    14:00 +41°C° 0 mm 1 mps 742 mmHg 32%
    15:00 +41°C° 0 mm 1 mps 741 mmHg 28%
    16:00 +40°C° 0 mm 1 mps 741 mmHg 32%
    17:00 +38°C° 0 mm 2 mps 741 mmHg 36%
    18:00 +36°C° 0 mm 2 mps 741 mmHg 41%
    19:00 +35°C° 0 mm 3 mps 742 mmHg 46%
    20:00 +34°C° 0 mm 3 mps 742 mmHg 52%
    21:00 +33°C° 0 mm 4 mps 743 mmHg 57%
    22:00 +32°C° 0 mm 4 mps 742 mmHg 61%
    23:00 +32°C° 0 mm 4 mps 742 mmHg 65%

    Day after tomorrow, 26 September, Tuesday

    Time Temperature Precipitation Wind Pressure Humidity
    00:00 +30°C° 0 mm 4 mps 742 mmHg 68%
    01:00 +30°C° 0 mm 4 mps 742 mmHg 70%
    02:00 +29°C° 0 mm 4 mps 741 mmHg 72%
    03:00 +29°C° 0 mm 4 mps 741 mmHg 74%
    04:00 +28°C° 0 mm 3 mps 741 mmHg 76%
    05:00 +28°C° 0 mm 3 mps 742 mmHg 78%
    06:00 +28°C° 0 mm 3 mps 742 mmHg 80%
    07:00 +30°C° 0 mm 3 mps 743 mmHg 72%
    08:00 +32°C° 0 mm 4 mps 743 mmHg 64%
    09:00 +34°C° 0 mm 4 mps 744 mmHg 56%
    10:00 +36°C° 0 mm 4 mps 743 mmHg 51%
    11:00 +38°C° 0 mm 3 mps 743 mmHg 45%
    12:00 +39°C° 0 mm 3 mps 742 mmHg 39%
    13:00 +39°C° 0 mm 3 mps 742 mmHg 39%
    14:00 +39°C° 0 mm 3 mps 741 mmHg 38%
    15:00 +39°C° 0 mm 2 mps 740 mmHg 37%
    16:00 +38°C° 0 mm 3 mps 740 mmHg 42%
    17:00 +36°C° 0 mm 3 mps 741 mmHg 46%
    18:00 +35°C° 0 mm 3 mps 741 mmHg 50%
    19:00 +34°C° 0 mm 4 mps 741 mmHg 54%
    20:00 +33°C° 0 mm 4 mps 742 mmHg 57%
    21:00 +33°C° 0 mm 4 mps 743 mmHg 61%
    22:00 +32°C° 0.6 mm 4 mps 743 mmHg 67%
    23:00 +29°C° 0.6 mm 4 mps 743 mmHg 73%

    27 September, Wednesday

    Time Temperature Precipitation Wind Pressure Humidity
    00:00 +28°C° 0.6 mm 3 mps 743 mmHg 78%
    01:00 +28°C° 0.2 mm 3 mps 743 mmHg 79%
    02:00 +28°C° 0.2 mm 4 mps 742 mmHg 79%
    03:00 +28°C° 0.2 mm 4 mps 742 mmHg 79%
    04:00 +28°C° 0 mm 3 mps 742 mmHg 80%
    05:00 +28°C° 0 mm 2 mps 742 mmHg 80%
    06:00 +28°C° 0 mm 2 mps 743 mmHg 80%
    07:00 +30°C° 0 mm 2 mps 743 mmHg 72%
    08:00 +31°C° 0 mm 2 mps 744 mmHg 64%
    09:00 +34°C° 0 mm 2 mps 744 mmHg 56%
    10:00 +36°C° 0 mm 2 mps 744 mmHg 49%
    11:00 +39°C° 0 mm 1 mps 743 mmHg 41%
    12:00 +41°C° 0 mm 1 mps 743 mmHg 34%
    13:00 +41°C° 0 mm 1 mps 742 mmHg 32%
    14:00 +41°C° 0 mm 2 mps 741 mmHg 30%
    15:00 +42°C° 0 mm 3 mps 741 mmHg 28%
    16:00 +39°C° 0 mm 3 mps 741 mmHg 31%
    17:00 +38°C° 0 mm 3 mps 741 mmHg 35%
    18:00 +36°C° 0 mm 3 mps 741 mmHg 39%
    19:00 +35°C° 0 mm 3 mps 742 mmHg 43%
    20:00 +34°C° 0 mm 3 mps 743 mmHg 46%
    21:00 +33°C° 0 mm 3 mps 743 mmHg 50%
    22:00 +33°C° 0 mm 3 mps 743 mmHg 52%
    23:00 +31°C° 0 mm 2 mps 743 mmHg 55%

    28 September, Thursday

    Time Temperature Precipitation Wind Pressure Humidity
    00:00 +30°C° 0 mm 2 mps 743 mmHg 58%
    01:00 +30°C° 0.1 mm 3 mps 743 mmHg 61%
    02:00 +29°C° 0.1 mm 3 mps 742 mmHg 64%
    03:00 +29°C° 0.1 mm 3 mps 742 mmHg 67%
    04:00 +28°C° 0 mm 3 mps 743 mmHg 71%
    05:00 +28°C° 0 mm 3 mps 743 mmHg 75%
    06:00 +27°C° 0 mm 3 mps 744 mmHg 79%
    07:00 +29°C° 0 mm 3 mps 744 mmHg 71%
    08:00 +33°C° 0 mm 4 mps 745 mmHg 63%
    09:00 +35°C° 0 mm 4 mps 745 mmHg 55%
    10:00 +36°C° 0 mm 4 mps 745 mmHg 48%
    11:00 +38°C° 0 mm 3 mps 744 mmHg 42%
    12:00 +40°C° 0 mm 2 mps 743 mmHg 36%
    13:00 +40°C° 0 mm 2 mps 743 mmHg 33%
    14:00 +41°C° 0 mm 2 mps 742 mmHg 30%
    15:00 +41°C° 0 mm 2 mps 741 mmHg 27%
    16:00 +40°C° 0 mm 2 mps 741 mmHg 31%
    17:00 +38°C° 0 mm 3 mps 742 mmHg 36%
    18:00 +36°C° 0 mm 3 mps 742 mmHg 40%
    19:00 +35°C° 0 mm 3 mps 742 mmHg 45%
    20:00 +34°C° 0 mm 3 mps 743 mmHg 50%
    21:00 +33°C° 0 mm 3 mps 743 mmHg 56%
    22:00 +33°C° 0 mm 4 mps 743 mmHg 60%
    23:00 +32°C° 0 mm 4 mps 743 mmHg 63%

    29 September, Friday

    Time Temperature Precipitation Wind Pressure Humidity
    00:00 +30°C° 0 mm 4 mps 743 mmHg 67%
    01:00 +30°C° 0 mm 3 mps 743 mmHg 70%
    02:00 +29°C° 0 mm 3 mps 743 mmHg 72%
    03:00 +29°C° 0 mm 3 mps 742 mmHg 74%
    04:00 +29°C° 0 mm 3 mps 743 mmHg 75%
    05:00 +29°C° 0 mm 3 mps 743 mmHg 77%
    06:00 +28°C° 0 mm 3 mps 743 mmHg 78%
    07:00 +30°C° 0 mm 3 mps 744 mmHg 70%
    08:00 +33°C° 0 mm 4 mps 744 mmHg 62%
    09:00 +34°C° 0 mm 4 mps 744 mmHg 54%
    10:00 +36°C° 0 mm 3 mps 744 mmHg 48%
    11:00 +38°C° 0 mm 3 mps 743 mmHg 42%
    12:00 +40°C° 0 mm 2 mps 742 mmHg 36%
    13:00 +40°C° 0 mm 2 mps 742 mmHg 33%
    14:00 +41°C° 0 mm 1 mps 741 mmHg 30%
    15:00 +42°C° 0 mm 1 mps 741 mmHg 27%
    16:00 +40°C° 0 mm 1 mps 741 mmHg 31%
    17:00 +37°C° 0 mm 1 mps 741 mmHg 34%
    18:00 +35°C° 0 mm 1 mps 741 mmHg 37%
    19:00 +35°C° 0.1 mm 2 mps 742 mmHg 42%
    20:00 +34°C° 0.1 mm 3 mps 742 mmHg 48%
    21:00 +33°C° 0.1 mm 4 mps 742 mmHg 53%
    22:00 +33°C° 0 mm 4 mps 742 mmHg 56%
    23:00 +32°C° 0 mm 4 mps 742 mmHg 59%
    Show more